Погода в Алхазурове

Россия / Чеченская Республика     43°03′50″N   45°39′09″E
темп.,
°C
ветер,
м/с
пор.,
м/с
влажн.,
%
обл.,
%
осадки,
мм/ч
давл.,
гПа
погр.,
м
4 марта, чт
чт400:00−2ююз2491100 0.7 1025339
03:00−3ююз229199 0.9 1026108
06:00−3ю238498 0.3 1028134
09:00+1з025668 0.3 1027626
12:00+4ссв21530 0.0 1025773
15:00+5ссв22540 0.0 1024765
18:00+1св11690 0.0 102522
21:000ю22700 0.0 102634
5 марта, пт
пт500:00−1ю23540 0.0 102445
03:00−1ююв22530 0.0 102333
06:00−1ю22520 0.0 102231
09:00+4ссв11410 0.0 1021263
12:00+7ссв21430 0.0 1018552
15:00+9ссв21440 0.0 1017525
18:00+4в11620 0.0 101922
21:00+3ю23570 0.0 102140
6 марта, сб
сб600:00+3ю33460 0.0 102144
03:00+2ю33450 0.0 102045
06:00+2ю33451 0.0 102047
09:00+9ю12391 0.0 1018122
12:00+13с21328 0.0 1016482
15:00+13с21324 0.0 1014552
18:00+9ю114832 0.0 101523
21:00+7ю344567 0.0 101588
7 марта, вс
вс700:00+6ююз2347100 0.0 101530
03:00+4з1380100 0.0 1017358
06:00−1сз3797100 5.3 1020465
09:00−1сз2493100 7.9 1022380
12:00−2ссз3692100 3.4 1022567
15:00−1сз2475100 4.5 1022810
18:00−2юз017989 0.1 102459
21:00−4ююв118560 0.1 102521
8 марта, пн
пн800:00−5ююв118455 0.0 102521
03:00−5ююз018527 0.0 102421
06:00−5ююз11820 0.0 102421
09:00−1с21680 0.0 1023440
12:00+1с336442 0.0 1020880
15:00+3с116371 0.1 1018948
18:000зсз0076100 0.1 101921
21:00−2ю118292 0.1 102021